Unicom:                    122.8

AWOS:                  118.275

Elevation           1458’ MSL

TPA:                   2500’ MSL

06/24:         5003’ L   75’ W

PAPI:       06/Left     24/Left

(Operate lights on unicom freq.)

Traffic Pattern: Left

Beacon: Sunset to Sunrise

Windsock: yes, lighted

Segmented Circle: No

 

Cleveland Center: 126.72/291.65

FSS: Altoona

[Source: ADDS]
METAR
KFKL 091108Z AUTO 29010G19KT 10SM BKN013 OVC021 09/06 A2937 RMK AO2 =
KFKL 090850Z 0909/1006 23007KT P6SM VCSH SCT250 FM091100 26010KT P6SM VCSH OVC015 FM091600 29015G26KT P6SM BKN035 FM092100 27015G22KT 6SM -SHRA OVC050 FM100000 28011G15KT 5SM -SHRASN BKN045
TAF
KFKL 090850Z 0909/1006 23007KT P6SM VCSH SCT250 FM091100 26010KT P6SM VCSH OVC015 FM091600 29015G26KT P6SM BKN035 FM092100 27015G22KT 6SM -SHRA OVC050 FM100000 28011G15KT 5SM -SHRASN BKN045 =
[Source: ADDS]
METAR
KDUJ 091053Z AUTO 24015G19KT 10SM BKN026 OVC035 11/06 A2933 RMK AO2 SLP928 T01060061 =
KDUJ 090850Z 0909/1006 18007KT P6SM OVC050 FM091100 25012KT P6SM VCSH OVC015 FM091700 29019G30KT P6SM VCSH BKN035 FM092300 28013G22KT 5SM -SHRASN BKN050
TAF
KDUJ 090850Z 0909/1006 18007KT P6SM OVC050 FM091100 25012KT P6SM VCSH OVC015 FM091700 29019G30KT P6SM VCSH BKN035 FM092300 28013G22KT 5SM -SHRASN BKN050 =

Welcome to Clarion County Airport.

We look forward to serving all of your aviation needs.


Clarion County Airport is a General Aviation, Business Class airport serving the Clarion County Area in Central Western Pennsylvania.  Our 5,003' asphalt runway and gps approaches are capable of serving most of the general aviation fleet in most weather conditions.


If you are planning a fuel stop while flying in Western Pennsylvania, consider paying us a visit. Our prices are some of the lowest in the state Check prices here ----> www.airnav.com/fuel and enter identifier KAXQ or see current prices below. We can have you fueled and taxiing out to the runway in about 10 minutes. Our current hours of operation are Monday- Sunday 8:00AM-4:00PM. Holiday closures are Christmas Day and Thanksgiving. If you require use of the facilities during the holidays or after hours please call ahead and someone will be there to assist you.


- Airport Manager -  


                             CURRENT FUEL PRICES AS OF 3/20/2020      JET-A w/additive    $3.99               100LL     $4.94 CC   Cash $4.84


                              Self Service fueling available 24/7, credit card reader enabled. Center point fueling available upon request.

                                                           For after hours fueling assistance please contact 814-282-6001.